Voltar ao catálogo

CZ-6A DEB

AtivoSSO
NORAD 56601·DEBRIS·🇨🇳 China

Lançado Nov 11, 2022 de Taiyuan Satellite Launch Center

Loading…

Próximas Passagens (próximas 24 horas)

TLE

AtualizadoSource: Space-Track

Época: Sep 14, 2026, 07:06 UTC

1 56601U 22151ADZ 26257.29614268  .00000337  00000-0  12607-3 0  9991
2 56601  98.5995 277.4792 0114619 137.9658 223.0392 14.34463622177443

Acompanhe CZ-6A DEB em tempo real com AllMySat

Download on the App Store